Back to catalog

DELTA 2 DEB

LostHEO
NORAD 29041·DEBRIS·🇺🇸 United States

Launched Mar 25, 2000 from Vandenberg Space Force Base

Loading…

Next Passes (next 24 hours)

TLE

StaleSource: Space-Track

Epoch: May 20, 2008, 03:57 UTC

1 29041U 00017F   08141.16474781 -.00000091 +00000-0 +00000-0 0  9997
2 29041 091.8679 209.3387 7617690 336.5583 002.3689 01.68921020021683

Track DELTA 2 DEB in real time with AllMySat

Download on the App Store